Other Surface Observations
Issued by NWS Upton, NY

Home | Current Version | Previous Version | Text Only | Print | Product List | Glossary On
Versions: 1 2 3 4 5 6 7 8 9 10 11 12 13 14 15 16 17 18 19 20 21 22 23 24 25 26 27 28 29 30 31 32 33 34 35 36 37 38 39 40 41 42 43 44 45 46 47 48 49 50
000
SXUS51 KOKX 221557
OSOOKX
New York City Metropolitan Area Weather Roundup
National Weather Service New York NY
1200 PM EDT TUE MAY 22 2018

CITY           SKY/WX    TMP DP  RH WIND       PRES   REMARKS
Central Park   CLOUDY    64  50  60 VRB5      30.16F
LaGuardia Arpt CLOUDY    66  51  58 S7        30.14F
Kennedy Intl   CLOUDY    65  55  70 S12       30.16F
Newark Liberty CLOUDY    66  50  56 SE8       30.13F
Teterboro Arpt CLOUDY    67  52  58 S9        30.12F
Bronx Bot Gard   N/A     64  50  59 SE7       30.16
Bronx Lehman C   N/A     64  52  63 S9          N/A
Queens College   N/A     64  52  63 S10         N/A
Breezy Point     N/A     61 N/A N/A SE7         N/A
Brooklyn Coll    N/A     64  52  63 SE10        N/A
Staten Island    N/A     64  52  63 SE5         N/A

>>>>>>>>>>>>>>>>>>>>>>>>>>>>>>>>> KEY <<<<<<<<<<<<<<<<<<<<<<<<<<<<<<<
> SKY/WX - Sky Condition/Present    : R : WCI - Wind Chill Index    <
>          Weather                  : E : VSB - Visibility in Miles <
> TMP    - Temperature in Deg F     : M : HX  - Heat Index          <
> DP     - Dew Point Temperature    : A : TC  - Temperature in      <
> RH     - Relative Humidity        : R :       Celsius             <
> WIND   - Direction/Speed (mph)    : K : VRB - Variable Wind Dir   <
> PRES   - Pressure (in Hg)         : S :                           <
>>>>>>>>>>>>>>>>>>>>>>>>>>>>>>>>> KEY <<<<<<<<<<<<<<<<<<<<<<<<<<<<<<<



USA.gov is the U.S. government's official web portal to all federal, state and local government web resources and services.